パンスターズ彗星

C/2017 C2 ( PanSTARRS )

English version
Home page
Updated on October 8, 2017

---------------------------------------------------------------------

・ プロフィール

発見日 2017年2月4日
発見光度 19.6等
発見者 Pan-STARRS 1 telescope (Haleakala)

・ 写真集

・ 軌道要素

Epoch 2017 Jan. 7.0 TT = JDT 2457760.5
T 2017 Jan. 21.61320 TT                                 MPCW
q   2.4310120            (2000.0)            P               Q
z  +0.0101505      Peri.  138.77446     -0.03647724     +0.56509270
 +/-0.0000140      Node   249.81974     +0.51729334     +0.71634986
e   0.9753239      Incl.  118.58274     +0.85503041     -0.40928368
From 83 observations 2017 Feb. 4-Sept. 17, mean residual 0".5.

・ 光度変化

        m1 = 13.0 + 5 logΔ + 10.0 log r

---------------------------------------------------------------------

軌道要素はM.P.E.C. 2017-T14に掲載されたものです。
光度グラフはComet for Windowsで作成したものです。

---------------------------------------------------------------------

Copyright(C) Seiichi Yoshida (comet@aerith.net). All rights reserved.